(164796) = 1999 GX13

Discovered at Kitt Peak on 1999-04-14 by Spacewatch.

Orbit

Orbit type: Main Belt

Note: WebGL enabled browser required.

epoch2023-09-13.0
epoch JD2460200.5
perihelion date2021-06-27.40548
perihelion JD2459392.90548
argument of perihelion (°)177.64266
ascending node (°)9.44268
inclination (°)2.95969
eccentricity0.1008075
perihelion distance (AU)2.8208577
Tisserand w.r.t. Jupiter3.2
ΔV w.r.t. Earth (km/sec)10.5
semimajor axis (AU)3.1371011
mean anomaly (°)143.25331
mean daily motion (°/day)0.17738270
aphelion distance (AU)3.453
period (years)5.56
P-vector [x]-0.99235452
P-vector [y]-0.11406367
P-vector [z]-0.04713787
Q-vector [x]0.12312896
Q-vector [y]-0.88874830
Q-vector [z]-0.44154923
absolute magnitude16.19
phase slope0.15
uncertainty0
referenceE2023-SF4
observations used264
oppositions14
arc length (days)9834
first opposition used1996
last opposition used2023
residual rms (arc-secs)0.73
perturbers coarse indicatorM-v
perturbers precise indicator003Ek
first observation date used1996-10-18.0
last observation date used2023-09-21.0
computer nameMPCLINUX
JD of orbit computation2456639.813207
perihelion JD uncertainty (days)1.7484E-04
argument of perihelion uncertainty (°)8.6830E-05
ascending node uncertainty (°)8.1732E-05
inclination uncertainty (°)7.6633E-06
eccentricity uncertainty 9.1244E-08
perihelion distance uncertainty (AU)2.9040E-07
Minimum Orbit Intersection Distances (in AU)
for orbit epoch: 2460200.5, reference: E2023-SF4
Mercury2.40459
Venus2.10167
Earth1.82079
Mars1.16986
Jupiter1.50154
Saturn5.81018
Uranus15.5952
Neptune26.401

Observations

268 total observations over interval: 1996 10 18.32284 – 2023 09 21.211612
These data are available for download (format description).

Date (UT) J2000 RA J2000 Dec Magn Location Ref
1996 10 18.32284 01 29 08.82 +10 30 03.3   691 – Steward Observatory, Kitt Peak-Spacewatch MPS 97558
1996 10 18.34424 01 29 07.82 +10 29 58.4 21.1 V 691 – Steward Observatory, Kitt Peak-Spacewatch MPS 97558
1996 10 18.36602 01 29 06.79 +10 29 53.1   691 – Steward Observatory, Kitt Peak-Spacewatch MPS 97558
1999 03 21.307820 12 15 59.331 -01 07 49.90 20.23 V 645 – Apache Point-Sloan Digital Sky Survey MPS 79555
1999 03 21.311292 12 15 59.165 -01 07 49.07 20.97   645 – Apache Point-Sloan Digital Sky Survey MPS 79555
1999 04 09.25466 12 01 45.49 +00 02 39.6 20.7 V 691 – Steward Observatory, Kitt Peak-Spacewatch MPS 34112
1999 04 09.27578 12 01 44.61 +00 02 43.4 20.7 V 691 – Steward Observatory, Kitt Peak-Spacewatch MPS 34112
1999 04 09.29707 12 01 43.69 +00 02 48.0 21.1 V 691 – Steward Observatory, Kitt Peak-Spacewatch MPS 34112
1999 04 14.23308 11 58 33.88 +00 17 40.2 20.7 V 691 – Steward Observatory, Kitt Peak-Spacewatch MPS 4580
1999 04 14.25419 11 58 33.08 +00 17 43.5 20.9 V 691 – Steward Observatory, Kitt Peak-Spacewatch MPS 4580
1999 04 14.27492 11 58 32.30 +00 17 47.3 21.1 V 691 – Steward Observatory, Kitt Peak-Spacewatch MPS 4580
1999 04 20.20078 11 55 16.49 +00 32 19.7 20.7 V 691 – Steward Observatory, Kitt Peak-Spacewatch MPS 4580
1999 04 20.22169 11 55 15.87 +00 32 22.4 20.6 V 691 – Steward Observatory, Kitt Peak-Spacewatch MPS 4580
1999 04 20.24248 11 55 15.24 +00 32 25.3 20.6 V 691 – Steward Observatory, Kitt Peak-Spacewatch MPS 4580
2004 01 19.34341 09 00 17.75 +21 05 20.7 20.8 V 691 – Steward Observatory, Kitt Peak-Spacewatch MPS 96848
2004 01 19.37203 09 00 16.33 +21 05 26.4 20.8 V 691 – Steward Observatory, Kitt Peak-Spacewatch MPS 96848
2004 01 19.39911 09 00 14.97 +21 05 31.6 20.7 V 691 – Steward Observatory, Kitt Peak-Spacewatch MPS 96848
2004 01 22.29429 08 57 53.42 +21 15 00.9 20.2   704 – Lincoln Laboratory ETS, New Mexico MPS 96848
2004 01 22.33295 08 57 51.46 +21 15 07.5 20.7   704 – Lincoln Laboratory ETS, New Mexico MPS 96848
2004 01 22.34597 08 57 50.73 +21 15 10.6 20.9   704 – Lincoln Laboratory ETS, New Mexico MPS 96848
2004 02 14.21090 08 38 17.96 +22 17 34.3 21.0 V 691 – Steward Observatory, Kitt Peak-Spacewatch MPS 135291
2004 02 14.23879 08 38 16.58 +22 17 37.7 21.1 V 691 – Steward Observatory, Kitt Peak-Spacewatch MPS 135291
2004 02 14.26631 08 38 15.22 +22 17 40.7 21.7 V 691 – Steward Observatory, Kitt Peak-Spacewatch MPS 135291
2004 04 14.176680 08 30 20.992 +21 25 05.64 21.71 V 645 – Apache Point-Sloan Digital Sky Survey MPS 136829
2004 04 14.180152 08 30 21.119 +21 25 04.82 22.69   645 – Apache Point-Sloan Digital Sky Survey MPS 136829
2005 03 14.47743 15 29 42.90 -20 46 42.5 20.1 R G96 – Mt. Lemmon Survey MPS 135291
2005 03 14.48399 15 29 43.00 -20 46 42.4 20.0 R G96 – Mt. Lemmon Survey MPS 135291
2005 03 14.49054 15 29 43.02 -20 46 43.5 19.9 R G96 – Mt. Lemmon Survey MPS 135291
2005 03 14.49711 15 29 43.14 -20 46 44.5 20.6 R G96 – Mt. Lemmon Survey MPS 135291
2005 05 11.34459 15 03 10.29 -20 19 43.5 19.2   644 – Palomar Mountain/NEAT MPS 135291
2005 05 11.37012 15 03 08.96 -20 19 40.0 19.2   644 – Palomar Mountain/NEAT MPS 135291
2005 05 11.39743 15 03 07.54 -20 19 35.3 19.3   644 – Palomar Mountain/NEAT MPS 135291
2005 05 16.24376 14 59 08.97 -20 06 35.2 20.3 V 691 – Steward Observatory, Kitt Peak-Spacewatch MPS 134694
2005 05 16.26119 14 59 08.06 -20 06 32.0 20.3 V 691 – Steward Observatory, Kitt Peak-Spacewatch MPS 134694
2005 05 16.27858 14 59 07.19 -20 06 29.2 20.2 V 691 – Steward Observatory, Kitt Peak-Spacewatch MPS 134694
2007 09 12.40843 01 22 04.36 +08 54 24.5 21.6 V G96 – Mt. Lemmon Survey MPS 214951
2007 09 12.41527 01 22 04.15 +08 54 23.7 21.6 V G96 – Mt. Lemmon Survey MPS 214951
2007 09 12.42220 01 22 03.97 +08 54 22.1 21.3 V G96 – Mt. Lemmon Survey MPS 214951
2007 09 12.42902 01 22 03.72 +08 54 21.2 22.0 V G96 – Mt. Lemmon Survey MPS 214951
2007 10 15.14494 00 59 55.22 +07 02 34.3 21.0 V 691 – Steward Observatory, Kitt Peak-Spacewatch MPS 220126
2007 10 15.16258 00 59 54.41 +07 02 30.6 20.5 V 691 – Steward Observatory, Kitt Peak-Spacewatch MPS 220126
2007 10 15.18023 00 59 53.66 +07 02 26.8 20.4 V 691 – Steward Observatory, Kitt Peak-Spacewatch MPS 220126
2007 11 01.20193 00 48 14.97 +05 59 47.4 21.0 V G96 – Mt. Lemmon Survey MPS 224504
2007 11 01.20637 00 48 14.83 +05 59 46.7 21.4 V G96 – Mt. Lemmon Survey MPS 224504
2007 11 01.21082 00 48 14.68 +05 59 45.9 20.4 V G96 – Mt. Lemmon Survey MPS 224504
2007 11 01.21524 00 48 14.54 +05 59 44.9 21.3 V G96 – Mt. Lemmon Survey MPS 224504
2010 02 09.37106 11 55 22.49 +02 21 52.4 21.5 V 691 – Steward Observatory, Kitt Peak-Spacewatch MPS 316260
2010 02 09.39995 11 55 21.82 +02 21 55.6 20.7 V 691 – Steward Observatory, Kitt Peak-Spacewatch MPS 316260
2010 02 09.41520 11 55 21.50 +02 21 57.7 20.9 V 691 – Steward Observatory, Kitt Peak-Spacewatch MPS 316260
2010 02 13.578083 11 53 43.056 +02 30 31.43 21.44 g F51 – Pan-STARRS 1, Haleakala MPS 320433
2010 02 13.587188 11 53 42.810 +02 30 32.61 21.63 g F51 – Pan-STARRS 1, Haleakala MPS 320433
2010 03 12.472281 11 36 07.076 +04 02 50.37 19.79 r F51 – Pan-STARRS 1, Haleakala MPS 338631
2010 03 12.481449 11 36 06.637 +04 02 51.94 20.61 r F51 – Pan-STARRS 1, Haleakala MPS 338631
2010 03 21.27698 11 29 14.64 +04 37 12.0 20.2 V G96 – Mt. Lemmon Survey MPS 320433
2010 03 21.28293 11 29 14.35 +04 37 13.4 20.0 V G96 – Mt. Lemmon Survey MPS 320433
2010 03 21.28891 11 29 14.02 +04 37 15.0 20.2 V G96 – Mt. Lemmon Survey MPS 320433
2010 03 21.29492 11 29 13.77 +04 37 16.0 20.2 V G96 – Mt. Lemmon Survey MPS 320433
2010 04 05.28949 11 18 56.52 +05 24 31.3 20.8 V G96 – Mt. Lemmon Survey MPS 321962
2010 04 05.29545 11 18 56.30 +05 24 32.5 20.6 V G96 – Mt. Lemmon Survey MPS 321962
2010 04 05.30137 11 18 56.08 +05 24 33.0 20.3 V G96 – Mt. Lemmon Survey MPS 321962
2010 04 05.30738 11 18 55.87 +05 24 33.9 20.4 V G96 – Mt. Lemmon Survey MPS 321962
2010 04 07.28227 11 17 49.23 +05 29 07.8 20.3 V G96 – Mt. Lemmon Survey MPS 321962
2010 04 07.28824 11 17 49.02 +05 29 08.9 20.6 V G96 – Mt. Lemmon Survey MPS 321962
2010 04 07.29429 11 17 48.84 +05 29 09.4 20.4 V G96 – Mt. Lemmon Survey MPS 321962
2010 04 07.30030 11 17 48.62 +05 29 10.3 20.3 V G96 – Mt. Lemmon Survey MPS 321962
2013 09 26.41603 03 14 16.32 +19 55 56.4 21.9 V G96 – Mt. Lemmon Survey MPS 478420
2013 09 26.42306 03 14 16.25 +19 55 56.2 21.3 V G96 – Mt. Lemmon Survey MPS 478420
2013 09 26.43013 03 14 16.09 +19 55 56.4 20.6 V G96 – Mt. Lemmon Survey MPS 478420
2013 09 26.43714 03 14 16.00 +19 55 56.6 21.4 V G96 – Mt. Lemmon Survey MPS 478420
2013 10 07.96441 03 09 45.99 +19 49 51.8 20.8 R G36 – Calar Alto-CASADO MPS 481653
2013 10 08.00628 03 09 44.65 +19 49 49.3 21.0 R G36 – Calar Alto-CASADO MPS 481653
2013 10 08.15601 03 09 39.91 +19 49 40.1 21.0 R G36 – Calar Alto-CASADO MPS 481653
2013 10 12.95523 03 07 01.12 +19 43 44.5 20.9 R G36 – Calar Alto-CASADO MPS 481653
2013 10 13.13060 03 06 54.67 +19 43 29.8 20.9 R G36 – Calar Alto-CASADO MPS 481653
2013 10 13.21285 03 06 51.67 +19 43 22.2 20.8 R G36 – Calar Alto-CASADO MPS 481653
2013 10 13.89864 03 06 27.15 +19 42 21.2 21.2 R G36 – Calar Alto-CASADO MPS 481653
2013 10 14.04639 03 06 21.59 +19 42 08.1 20.7 R G36 – Calar Alto-CASADO MPS 481653
2013 10 14.16048 03 06 17.25 +19 41 57.8 20.8 R G36 – Calar Alto-CASADO MPS 481653
2013 10 25.18883 02 58 39.34 +19 20 17.7 21.1 V 691 – Steward Observatory, Kitt Peak-Spacewatch MPS 483210
2013 10 25.20656 02 58 38.57 +19 20 14.9 21.1 V 691 – Steward Observatory, Kitt Peak-Spacewatch MPS 483210
2013 10 25.22429 02 58 37.71 +19 20 12.4 20.6 V 691 – Steward Observatory, Kitt Peak-Spacewatch MPS 483210
2013 10 25.43063 02 58 28.05 +19 19 43.0 20.2 V G96 – Mt. Lemmon Survey MPS 483210
2013 10 25.43764 02 58 27.72 +19 19 41.8 20.4 V G96 – Mt. Lemmon Survey MPS 483210
2013 10 25.44465 02 58 27.42 +19 19 41.1 20.7 V G96 – Mt. Lemmon Survey MPS 483210
2013 10 25.45167 02 58 27.07 +19 19 40.0 20.6 V G96 – Mt. Lemmon Survey MPS 483210
2013 10 25.52632 02 58 23.718 +19 19 30.15 20.4 i F51 – Pan-STARRS 1, Haleakala MPS 484743
2013 10 25.53889 02 58 23.112 +19 19 28.18 20.7 i F51 – Pan-STARRS 1, Haleakala MPS 484743
2013 10 25.54518 02 58 22.841 +19 19 27.34 21.0 r F51 – Pan-STARRS 1, Haleakala MPS 484743
